Temperature
22 22 22 22 19 18 19 20 20 21 21 21 21 20 19 18 18 18 18 18 18 18 18 18 18 18 18 18 18 18 18 18 18 18 18 18 18 18 18 18 18 18 18 18 18 18 18 18 18
22 22 22 21 18 18 19 20 20 21 21 22 21 20 19 18 18 18 18 18 18 18 18 18 18 18 18 18 18 18 18 18 18 18 18 18 18 18 18 18 18 18 18 18 18 18 18 18 18
22 22 22 18 18 18 20 20 21 22 22 22 21 20 19 19 19 18 18 18 18 18 18 18 18 18 18 18 18 18 18 18 18 18 18 18 18 18 18 18 18 18 18 18 18 18 17 17 17
22 22 21 18 19 20 20 21 21 22 22 21 20 19 19 19 19 19 18 18 19 18 18 18 18 18 18 18 18 18 18 18 18 18 18 17 18 18 17 17 18 18 18 17 17 17 17 17 17
22 22 19 19 20 21 21 22 22 21 21 21 20 19 19 19 19 19 19 19 19 18 18 18 18 18 18 18 18 17 17 17 17 17 17 17 17 17 17 17 17 17 17 17 17 17 17 17 17
22 19 18 19 20 21 21 22 22 21 21 20 20 19 19 19 19 19 19 19 19 19 18 18 18 18 18 18 18 17 17 17 17 17 17 17 17 17 17 17 17 17 17 17 17 17 17 17 17
21 18 19 20 20 21 22 23 22 21 21 21 20 19 19 19 19 19 19 19 19 19 18 18 18 18 18 18 18 17 17 17 17 17 17 17 17 17 17 17 17 17 17 17 17 17 17 16 16
23 18 19 19 20 21 22 23 23 22 21 21 21 19 19 19 19 19 19 19 18 18 18 18 18 18 18 18 17 17 17 17 17 17 17 17 17 17 17 17 17 17 17 17 17 16 16 16 16
23 18 19 20 20 21 22 22 22 22 22 21 21 21 21 20 19 19 19 19 18 18 18 18 18 18 18 18 18 17 17 17 17 17 17 17 17 17 17 17 17 17 17 17 16 16 16 16 16
22 18 20 21 21 21 22 22 22 22 21 20 21 21 20 20 19 19 19 19 18 18 18 18 18 18 18 18 18 17 17 17 17 17 17 17 17 17 17 17 17 17 17 16 16 16 16 16 16
21 20 21 22 23 23 22 22 22 21 20 20 20 20 20 20 19 19 19 19 19 19 18 18 18 18 18 18 18 17 17 17 17 17 17 17 17 17 17 17 17 16 16 16 16 16 16 16 16
21 21 22 23 23 23 22 22 22 21 21 21 21 21 20 20 19 19 19 19 19 19 18 18 18 18 18 18 18 17 17 17 17 17 17 17 17 17 17 17 16 16 16 16 16 16 16 16 16
21 22 23 23 23 23 22 22 21 21 22 21 21 20 20 19 19 19 19 19 19 19 18 18 18 18 18 18 18 17 17 17 17 17 17 17 17 17 17 16 16 16 16 16 16 16 16 16 16
22 22 23 23 23 23 22 21 21 21 21 21 20 20 20 19 19 19 19 19 19 19 18 18 18 18 18 18 18 17 17 17 17 17 17 17 17 17 17 16 16 16 16 16 16 16 16 16 16
23 21 21 22 22 22 22 20 20 21 21 20 20 20 19 19 19 19 19 19 19 19 19 18 18 18 18 18 18 17 17 17 17 17 17 16 16 16 16 16 16 16 16 16 16 16 15 15 15
21 20 20 21 22 22 21 19 19 21 20 19 19 19 19 19 19 19 19 19 19 19 19 18 18 18 18 18 17 17 17 17 17 17 16 16 16 16 16 16 16 16 16 16 16 16 15 15 15
19 19 19 20 21 21 20 19 19 21 20 19 19 19 19 19 19 19 19 19 18 18 18 18 18 18 18 17 17 17 17 17 17 17 17 16 16 16 16 16 16 16 16 16 16 16 15 15 15
18 19 19 19 20 20 19 19 19 20 20 19 19 19 19 19 19 19 19 18 18 18 18 18 18 18 18 17 17 17 17 17 17 17 17 16 16 16 16 16 16 16 16 16 16 15 15 15 15
20 19 19 19 20 20 19 18 18 19 19 19 19 19 18 18 19 18 18 18 18 18 18 18 18 18 17 17 17 17 17 16 16 16 16 16 16 16 16 16 16 16 16 16 15 15 15 15 15
20 19 19 20 21 20 18 18 18 18 19 19 19 18 18 18 18 18 18 18 18 18 18 17 17 17 17 17 17 17 16 16 16 16 16 16 16 16 16 16 16 16 16 15 15 15 15 15 15
19 19 19 19 20 20 19 18 18 18 19 19 19 19 19 18 18 18 18 18 18 18 17 17 17 17 17 17 17 16 16 16 16 16 16 16 16 16 16 16 16 16 15 15 15 15 15 15 15
19 20 20 20 18 17 18 16 17 17 17 17 18 18 18 18 18 18 18 18 18 17 17 17 17 17 17 17 17 16 16 16 16 16 16 16 16 16 16 16 15 15 15 15 15 15 15 15 15
19 20 19 19 18 17 17 16 16 16 16 16 17 18 18 18 18 18 18 18 18 17 17 17 17 17 17 16 16 16 16 16 16 16 16 16 15 15 15 15 15 15 15 15 15 15 15 15 15
20 19 18 16 16 16 17 16 15 15 16 17 17 17 17 18 18 18 17 17 17 17 17 16 16 16 16 16 16 16 16 16 16 15 15 15 15 15 15 15 15 15 15 15 15 15 15 15 14
18 16 16 16 15 15 16 16 15 16 17 17 16 17 17 17 17 17 17 17 17 16 16 16 16 16 16 16 16 15 15 15 15 15 15 15 15 15 15 15 15 15 15 15 14 14 14 14 14
17 16 15 16 15 15 16 16 16 17 17 17 17 17 17 17 17 16 16 16 16 16 16 16 16 15 15 15 15 15 15 15 15 15 15 15 15 15 14 14 14 14 14 14 14 14 14 14 14
18 16 16 15 16 15 15 16 16 17 16 16 16 16 16 16 16 16 16 16 16 16 15 15 15 15 15 15 15 14 15 14 14 14 14 14 14 14 14 14 14 14 14 14 14 14 14 14 13
18 17 14 15 15 15 15 15 15 15 15 15 15 15 15 15 15 16 16 15 15 15 15 15 15 15 14 14 14 14 14 14 14 14 14 13 14 14 14 14 13 13 13 13 13 13 13 13 13
18 17 15 14 14 14 15 15 16 15 15 14 15 15 15 15 15 15 15 15 15 15 14 14 14 14 14 14 14 14 14 13 13 13 13 13 13 13 13 13 13 13 13 13 13 13 13 13 13
17 17 15 15 14 14 13 14 16 15 15 15 15 15 15 15 15 15 14 14 14 14 14 14 14 14 14 14 13 13 13 13 13 13 13 13 13 13 13 12 12 12 12 12 12 12 12 12 12
Wind_Speed
5 4 2 4 6 6 4 2 1 4 4 5 9 10 8 6 5 6 2 6 8 5 5 7 8 9 10 10 11 12 11 12 12 13 13 13 13 14 14 13 14 13 14 13 13 12 11 11 10
3 2 4 5 6 5 2 1 4 5 6 6 9 8 8 6 4 6 4 7 8 7 6 7 9 9 10 10 10 11 11 11 12 13 13 14 14 14 13 13 13 13 13 13 12 12 11 11 10
2 1 4 5 5 5 3 1 5 5 5 5 5 6 5 4 4 4 7 9 8 6 6 8 9 9 9 10 10 10 10 11 12 13 13 13 13 13 13 12 12 12 12 12 12 11 11 11 10
3 5 5 6 6 3 5 3 5 6 6 6 6 6 4 2 4 6 10 10 9 6 6 8 10 10 9 9 9 10 10 11 11 12 12 12 12 12 12 12 12 12 12 11 11 11 11 11 10
4 5 6 5 3 2 3 4 6 7 4 5 7 6 3 2 6 10 11 10 9 6 6 8 10 9 9 9 9 9 10 10 11 12 12 12 12 11 11 11 11 11 11 11 11 11 11 11 11
5 5 5 4 3 3 3 5 8 8 7 7 7 6 2 2 7 8 10 9 8 7 6 8 10 9 9 9 9 9 9 10 10 11 11 11 12 11 10 10 10 10 10 10 10 10 11 11 11
5 5 4 4 5 4 3 4 6 7 6 4 6 6 3 2 5 8 9 8 7 7 7 6 7 8 8 9 9 9 9 10 10 10 10 11 10 10 10 9 9 9 9 9 9 9 10 10 11
5 5 4 3 5 3 2 4 5 8 5 5 6 7 5 6 6 8 8 7 6 5 5 5 6 6 6 6 7 8 8 9 9 9 9 9 8 8 8 8 8 8 8 8 8 8 9 10 11
5 5 3 3 4 3 3 5 4 5 6 4 3 5 7 9 8 8 7 5 5 5 4 4 4 4 5 5 6 6 7 7 8 8 8 7 5 5 6 6 7 7 8 7 8 9 9 10 11
5 4 3 3 5 5 4 6 5 5 7 5 5 5 8 8 8 8 7 6 6 6 5 4 4 4 4 4 5 4 4 5 6 6 6 5 4 4 5 5 6 6 7 7 8 8 8 9 8
4 5 3 2 4 6 5 4 4 8 4 5 7 9 8 7 6 6 6 6 6 6 6 6 5 5 4 3 4 3 3 4 4 5 6 5 4 4 4 4 5 5 6 6 7 7 7 7 7
4 2 3 3 4 6 5 4 4 5 5 7 11 11 9 8 7 6 6 4 4 5 5 6 6 5 4 4 3 3 3 3 3 4 6 5 3 3 3 2 3 3 3 4 4 4 6 7 7
4 2 2 3 5 6 7 5 5 3 4 8 11 10 8 7 5 5 5 5 5 4 4 5 5 5 4 4 3 3 2 3 4 4 5 6 4 2 2 2 2 2 3 3 3 3 4 5 5
3 3 2 3 4 5 8 4 5 2 7 10 11 9 8 8 7 5 4 4 4 4 4 4 4 4 5 4 3 3 3 3 4 4 5 5 5 3 2 2 2 2 3 3 3 3 3 3 4
4 3 2 1 2 3 6 4 1 3 7 9 8 8 7 6 6 6 6 6 4 4 4 4 5 4 4 4 4 4 3 4 4 3 4 5 5 5 3 2 1 2 3 4 4 4 4 3 3
3 3 1 3 1 2 6 2 3 4 9 8 6 7 6 5 5 5 5 5 4 4 4 4 5 4 4 3 3 3 4 5 4 4 4 5 5 6 4 2 1 2 4 3 2 2 3 3 3
2 1 3 3 1 2 5 4 3 4 7 7 6 6 6 5 3 4 5 5 4 5 5 4 5 4 3 3 3 3 3 4 4 4 4 4 5 6 4 2 1 3 3 2 2 2 3 2 2
3 3 3 3 2 4 4 4 3 3 6 7 6 6 5 5 5 5 5 5 4 4 5 4 4 4 4 3 3 3 3 2 3 3 3 4 4 5 5 3 2 3 2 2 2 2 2 2 2
4 3 2 4 3 3 4 4 4 4 4 5 5 5 6 6 5 5 5 5 4 4 4 3 3 3 3 2 2 2 1 1 1 2 3 3 4 5 5 3 2 2 2 2 2 2 3 2 2
2 2 2 2 2 3 3 3 3 4 6 7 8 7 7 5 3 4 5 5 4 4 3 3 3 3 3 2 2 2 2 1 1 1 2 3 3 4 4 3 2 2 3 3 3 2 2 2 2
2 4 4 3 1 0 1 3 3 3 1 2 4 6 6 7 7 6 5 5 5 4 4 4 4 4 3 3 3 3 2 2 2 1 1 1 2 3 3 3 3 2 3 3 2 2 3 2 1
3 4 4 2 1 3 2 3 6 3 1 1 2 3 5 6 6 6 6 5 5 5 4 4 4 4 3 4 4 4 3 1 1 1 1 0 2 2 3 3 3 3 2 2 2 2 2 3 1
5 4 2 2 2 2 2 3 5 2 2 4 3 3 4 5 6 7 6 6 5 4 4 3 3 3 3 4 5 4 2 1 0 1 1 0 0 1 2 2 3 2 2 3 2 2 2 2 2
2 2 4 3 3 3 5 4 4 3 5 4 3 3 3 4 5 4 4 4 3 3 3 3 3 2 2 3 4 4 3 2 2 1 1 0 1 1 1 2 2 2 2 2 2 2 3 2 2
4 5 3 3 2 5 2 4 5 5 4 5 5 4 4 4 5 4 4 3 2 2 3 3 4 2 2 2 3 3 3 4 3 3 2 1 0 0 1 1 2 1 2 2 2 2 2 2 2
2 6 5 4 4 4 1 4 4 2 1 3 4 4 5 5 5 5 4 4 3 2 3 3 4 3 2 2 2 2 2 2 2 2 2 2 2 2 1 1 2 2 2 2 2 1 1 1 1
3 3 6 5 1 2 2 1 3 3 3 3 4 5 5 4 4 4 4 3 3 3 3 3 4 3 2 2 2 2 1 2 2 1 1 2 2 2 2 2 2 2 2 2 2 1 1 1 1
4 5 5 3 2 3 3 3 3 2 2 2 3 4 4 4 4 4 3 3 2 2 2 3 3 3 2 2 2 2 1 1 1 1 1 1 1 1 2 1 1 1 1 2 2 1 0 1 0
1 2 3 3 4 4 3 5 3 5 4 3 3 3 4 4 4 3 2 2 2 3 3 3 2 3 2 1 1 1 1 1 1 1 1 1 1 1 2 2 2 2 1 1 2 1 1 1 0
4 4 5 3 3 3 3 5 2 3 3 4 3 2 3 3 3 3 3 3 3 2 2 2 2 1 1 2 2 2 1 1 1 1 1 1 1 1 1 1 1 1 1 1 2 1 1 1 0
Wind_Direction
325 336 73 57 56 57 61 16 91 58 60 57 71 80 82 69 89 124 177 134 133 127 113 100 98 95 91 89 88 86 83 81 79 78 78 80 86 89 89 86 83 80 79 82 87 88 87 86 86
333 0 57 58 81 81 49 29 76 91 138 121 79 76 77 71 84 116 126 140 130 125 117 108 106 101 96 95 92 89 87 84 81 83 83 82 85 88 89 87 85 82 82 83 85 85 83 81 82
323 47 74 69 90 125 139 161 105 88 100 89 76 57 72 103 111 131 147 143 125 118 119 116 112 108 103 100 98 95 91 87 84 86 88 87 87 88 89 90 87 84 84 85 85 83 80 77 79
56 45 57 74 92 148 157 161 116 93 59 57 91 65 53 97 139 136 138 136 126 122 123 122 117 115 111 108 103 100 96 92 89 90 90 90 89 90 90 89 87 85 84 85 83 81 79 78 77
63 69 65 67 77 113 139 131 108 98 85 75 88 93 61 28 114 128 136 134 131 131 129 127 120 118 117 113 108 104 102 96 94 93 92 91 89 89 89 87 88 88 86 84 81 79 77 75 77
55 68 83 89 84 69 80 108 101 97 107 107 97 103 97 109 124 140 140 139 140 138 133 127 122 120 120 118 113 109 106 100 97 98 96 93 92 92 90 89 89 88 86 83 79 74 73 74 78
97 90 115 123 98 80 95 107 106 113 116 126 122 104 127 152 152 143 138 138 136 132 128 125 127 123 121 120 117 115 112 108 105 105 101 99 97 96 92 89 90 87 84 81 77 72 72 73 75
123 97 83 98 110 108 127 103 115 117 119 129 118 130 163 190 160 131 126 128 129 129 135 136 132 127 123 121 119 118 119 116 113 113 109 101 96 94 92 88 88 87 84 81 76 73 72 72 74
91 80 101 147 137 136 113 99 83 82 94 78 95 147 162 157 135 123 117 116 131 140 148 146 142 139 136 129 123 117 116 118 118 118 118 107 91 86 88 84 87 86 85 80 72 70 73 73 76
88 114 172 177 155 137 113 111 116 90 79 74 74 92 124 134 133 134 136 141 150 161 165 160 160 158 151 135 125 115 110 113 117 119 117 111 101 92 90 81 75 79 78 73 66 63 66 70 75
113 147 157 114 132 123 108 94 94 114 109 145 144 141 142 130 128 138 145 152 161 164 157 162 169 163 155 134 132 119 113 111 116 122 118 114 98 85 77 68 63 59 59 55 50 53 61 68 78
105 134 133 116 110 112 116 110 88 112 164 157 145 143 138 133 138 145 146 146 144 139 144 160 165 153 157 143 136 133 122 116 126 133 126 117 102 85 81 72 64 58 56 54 53 60 65 70 76
112 133 117 117 105 114 101 105 118 119 137 129 127 128 138 143 140 140 143 133 124 122 134 150 159 152 152 140 142 132 128 133 136 133 133 125 117 112 103 96 81 68 67 67 62 66 69 72 74
151 134 120 111 112 114 100 77 82 154 134 126 130 138 144 145 134 117 120 123 127 123 129 138 134 144 140 138 139 137 133 125 120 125 134 131 127 120 108 89 80 68 76 81 83 84 86 82 80
121 100 22 9 132 159 104 54 108 182 133 132 137 143 138 138 132 137 151 146 145 136 118 125 131 123 125 133 140 130 124 112 100 107 127 124 126 124 114 100 77 67 77 83 82 79 84 84 79
70 85 181 273 152 161 119 181 244 168 130 138 147 145 141 144 146 146 143 142 140 130 115 119 123 115 109 110 115 115 115 106 100 102 113 118 120 122 118 107 93 90 85 84 86 85 86 75 73
36 149 211 267 267 159 142 191 238 177 141 151 162 160 154 145 131 131 133 136 136 136 128 111 108 116 113 108 103 98 94 96 97 102 103 111 116 116 113 100 83 89 78 67 96 88 103 101 88
216 209 213 217 246 140 157 197 217 180 151 164 170 167 160 155 164 152 137 128 125 123 121 116 114 122 122 106 79 74 73 72 81 92 101 109 112 112 106 90 78 85 79 61 72 83 78 102 119
185 195 229 232 219 160 191 211 217 203 163 166 176 174 170 176 177 150 138 128 115 104 108 115 114 108 112 109 114 112 106 82 60 78 94 110 116 113 105 95 84 86 90 83 78 92 74 56 82
173 182 249 263 227 179 197 246 241 208 192 183 182 181 181 173 150 143 141 137 135 140 134 123 132 130 131 147 156 153 152 173 170 89 63 87 109 121 121 113 116 111 96 72 64 84 92 64 71
232 189 212 224 298 309 139 316 297 279 228 179 182 181 181 174 168 163 154 156 148 150 160 156 156 149 146 133 105 84 65 41 37 29 32 45 98 111 116 122 120 124 122 115 87 99 121 119 49
248 233 211 200 165 253 190 247 280 257 261 209 198 185 185 181 169 166 163 162 170 177 171 161 160 154 149 136 128 136 139 154 222 226 227 344 92 108 120 126 127 133 133 125 116 94 113 130 125
223 229 210 206 182 251 254 186 277 286 236 245 223 189 178 171 167 172 178 179 181 172 163 155 147 151 145 142 145 147 141 165 159 94 62 18 4 75 119 127 125 137 142 142 118 99 101 115 128
202 48 31 43 73 272 239 184 265 240 223 223 213 177 169 157 154 160 174 167 157 142 130 129 126 119 138 137 138 148 152 149 133 128 122 348 346 344 63 119 116 124 133 136 133 138 126 125 121
77 87 33 3 357 257 224 169 241 250 221 193 184 172 159 145 135 134 125 123 125 122 132 132 126 108 107 129 147 163 168 170 175 186 191 193 148 343 330 96 114 118 120 126 127 138 136 142 129
176 142 161 201 226 274 323 202 249 275 168 140 137 137 128 124 131 133 133 132 137 141 143 137 135 129 136 141 164 165 166 172 191 193 194 199 202 213 205 117 130 121 112 117 124 141 155 143 150
145 183 179 155 221 265 280 284 324 34 58 85 98 108 122 125 121 127 134 138 144 139 141 148 144 136 145 143 140 140 163 183 196 191 194 198 200 193 159 150 139 119 111 114 127 127 169 144 163
160 156 94 127 178 253 275 249 236 245 245 145 123 129 136 130 122 119 132 144 136 137 129 130 133 138 137 146 146 140 167 190 192 161 185 203 193 167 159 157 146 135 110 105 119 126 146 120 169
147 120 118 142 169 177 239 262 226 191 182 165 164 153 145 145 142 136 135 133 123 108 110 105 111 122 130 148 145 132 142 139 139 151 175 172 156 150 152 168 150 156 153 136 125 137 122 120 25
181 180 152 167 235 183 194 260 293 167 155 143 142 125 122 128 126 115 110 100 102 112 111 115 107 108 167 153 130 150 138 113 106 107 122 119 122 139 141 133 134 157 181 162 144 162 160 162 179
Height
1502 1501 1500 1501 1505 1518 1523 1517 1512 1510 1510 1511 1510 1511 1515 1519 1523 1530 1527 1524 1525 1524 1523 1523 1522 1521 1520 1519 1519 1518 1517 1517 1516 1515 1514 1513 1512 1513 1513 1514 1514 1513 1512 1511 1512 1513 1514 1514 1515
1502 1501 1502 1503 1515 1530 1526 1516 1513 1511 1511 1511 1512 1514 1516 1521 1522 1524 1525 1526 1526 1525 1524 1524 1523 1522 1521 1520 1520 1519 1519 1518 1518 1517 1516 1515 1515 1514 1515 1515 1515 1515 1515 1514 1515 1515 1515 1516 1516
1502 1502 1504 1508 1519 1527 1524 1515 1512 1511 1511 1511 1514 1517 1519 1523 1524 1525 1525 1526 1527 1526 1525 1525 1524 1523 1522 1522 1521 1521 1520 1520 1519 1518 1518 1517 1517 1517 1517 1517 1517 1517 1517 1516 1517 1517 1517 1517 1517
1503 1504 1506 1514 1521 1517 1515 1513 1512 1512 1513 1514 1515 1520 1523 1525 1525 1525 1526 1527 1527 1527 1526 1526 1525 1524 1524 1523 1523 1522 1521 1521 1521 1520 1519 1519 1519 1519 1519 1519 1519 1518 1518 1518 1518 1518 1518 1518 1518
1503 1505 1513 1521 1519 1515 1512 1511 1512 1513 1515 1517 1517 1522 1525 1526 1526 1527 1528 1528 1528 1528 1527 1527 1527 1526 1525 1525 1524 1523 1523 1523 1522 1522 1521 1521 1521 1520 1520 1520 1520 1520 1520 1520 1520 1520 1520 1520 1519
1505 1507 1522 1527 1521 1514 1513 1513 1513 1515 1517 1519 1520 1523 1527 1528 1528 1529 1529 1530 1530 1529 1529 1528 1528 1527 1527 1526 1525 1525 1524 1524 1524 1523 1523 1523 1522 1522 1522 1522 1522 1522 1522 1522 1521 1521 1521 1521 1520
1507 1513 1522 1522 1521 1518 1515 1513 1514 1516 1518 1519 1520 1524 1527 1529 1529 1530 1530 1531 1531 1530 1530 1530 1529 1529 1528 1528 1527 1527 1526 1526 1525 1525 1525 1524 1524 1524 1524 1524 1524 1524 1524 1523 1523 1523 1522 1522 1522
1507 1513 1520 1522 1522 1520 1515 1514 1515 1516 1518 1520 1521 1523 1526 1529 1530 1531 1531 1532 1532 1532 1531 1531 1531 1530 1530 1529 1529 1528 1528 1527 1527 1527 1526 1526 1526 1526 1526 1525 1525 1525 1525 1525 1525 1524 1524 1523 1523
1508 1518 1524 1521 1520 1518 1515 1515 1517 1518 1519 1521 1521 1522 1524 1528 1530 1531 1532 1532 1533 1533 1532 1532 1532 1532 1531 1531 1530 1530 1529 1529 1528 1528 1528 1528 1527 1527 1527 1527 1527 1527 1527 1527 1526 1526 1525 1525 1524
1509 1521 1519 1514 1514 1515 1515 1516 1518 1520 1521 1522 1523 1524 1526 1528 1529 1530 1531 1532 1533 1533 1533 1533 1533 1533 1532 1532 1532 1531 1531 1530 1530 1530 1529 1529 1529 1529 1529 1528 1528 1528 1528 1528 1528 1527 1527 1526 1526
1510 1515 1513 1512 1513 1514 1515 1517 1518 1520 1523 1523 1523 1524 1526 1528 1530 1531 1531 1532 1533 1533 1534 1534 1534 1534 1534 1533 1533 1533 1532 1532 1531 1531 1531 1530 1530 1530 1530 1530 1530 1530 1530 1529 1529 1529 1528 1527 1527
1511 1512 1512 1513 1513 1514 1516 1518 1520 1521 1523 1523 1523 1524 1526 1528 1529 1531 1532 1532 1533 1534 1534 1534 1534 1534 1534 1534 1534 1534 1533 1533 1533 1533 1532 1532 1532 1531 1531 1531 1531 1531 1531 1530 1530 1530 1529 1529 1528
1512 1513 1513 1513 1514 1515 1516 1519 1520 1522 1522 1523 1524 1525 1527 1528 1530 1531 1532 1533 1533 1534 1534 1534 1535 1535 1535 1535 1535 1535 1535 1534 1534 1534 1533 1533 1533 1532 1532 1532 1532 1532 1532 1531 1531 1531 1530 1530 1529
1512 1513 1514 1514 1515 1516 1517 1520 1521 1524 1523 1523 1524 1526 1527 1528 1530 1531 1532 1532 1533 1533 1534 1534 1535 1535 1536 1536 1535 1536 1535 1535 1535 1535 1534 1534 1534 1533 1533 1533 1533 1533 1532 1532 1532 1532 1531 1531 1531
1512 1515 1516 1515 1515 1517 1518 1524 1524 1523 1523 1524 1525 1527 1528 1529 1530 1530 1531 1532 1533 1533 1533 1534 1534 1535 1536 1536 1536 1536 1536 1536 1535 1535 1535 1535 1535 1534 1534 1533 1533 1533 1533 1533 1533 1532 1532 1532 1532
1514 1520 1525 1518 1516 1517 1522 1532 1524 1523 1523 1524 1526 1527 1528 1529 1529 1530 1531 1531 1532 1533 1533 1534 1534 1535 1535 1536 1536 1536 1536 1536 1536 1536 1536 1535 1535 1535 1534 1534 1534 1534 1533 1533 1533 1533 1533 1532 1532
1522 1529 1527 1522 1516 1517 1522 1528 1523 1523 1523 1524 1525 1526 1527 1528 1529 1530 1530 1531 1531 1532 1532 1533 1534 1534 1535 1535 1536 1536 1536 1536 1536 1536 1536 1536 1535 1535 1535 1534 1534 1534 1534 1533 1533 1533 1533 1533 1533
1530 1528 1527 1525 1519 1519 1523 1525 1522 1521 1522 1523 1524 1525 1526 1527 1528 1529 1529 1530 1531 1532 1532 1532 1533 1534 1534 1535 1535 1536 1536 1536 1536 1536 1536 1535 1535 1535 1535 1534 1534 1534 1533 1533 1533 1533 1533 1533 1533
1520 1524 1526 1523 1517 1520 1523 1523 1521 1520 1520 1521 1523 1523 1524 1526 1527 1528 1529 1530 1530 1531 1531 1532 1532 1533 1533 1534 1534 1535 1535 1535 1535 1535 1535 1535 1535 1535 1534 1534 1533 1533 1533 1533 1533 1533 1532 1532 1532
1519 1524 1525 1521 1516 1519 1523 1523 1519 1518 1518 1519 1520 1521 1523 1524 1525 1526 1527 1528 1529 1529 1530 1531 1531 1532 1532 1533 1533 1534 1534 1534 1535 1535 1534 1534 1534 1534 1534 1533 1533 1532 1532 1532 1532 1532 1532 1532 1532
1519 1523 1523 1523 1518 1518 1522 1527 1522 1519 1518 1518 1518 1519 1520 1521 1522 1524 1525 1526 1527 1528 1529 1529 1530 1531 1531 1532 1532 1533 1533 1533 1533 1533 1533 1533 1533 1533 1533 1533 1532 1532 1531 1531 1531 1531 1531 1531 1531
1522 1515 1516 1519 1525 1531 1526 1540 1527 1520 1518 1517 1517 1517 1518 1519 1520 1522 1523 1524 1525 1526 1527 1528 1528 1529 1530 1531 1531 1531 1531 1531 1531 1532 1532 1532 1532 1532 1532 1532 1531 1531 1530 1530 1530 1530 1530 1530 1530
1516 1512 1514 1517 1523 1530 1529 1537 1532 1521 1521 1518 1516 1516 1516 1517 1519 1520 1521 1522 1523 1524 1525 1526 1527 1528 1529 1529 1529 1530 1530 1530 1530 1530 1530 1531 1531 1531 1530 1530 1530 1530 1529 1529 1529 1529 1529 1529 1529
1510 1514 1517 1523 1528 1538 1530 1535 1535 1524 1519 1516 1515 1515 1515 1516 1517 1518 1520 1521 1522 1523 1524 1525 1525 1526 1527 1527 1528 1528 1528 1528 1528 1528 1528 1528 1528 1528 1529 1528 1528 1528 1528 1528 1528 1528 1528 1528 1529
1514 1527 1539 1541 1546 1541 1527 1532 1531 1516 1513 1512 1512 1513 1514 1514 1515 1517 1518 1519 1520 1521 1522 1523 1524 1524 1525 1526 1526 1527 1527 1527 1526 1526 1526 1526 1526 1526 1526 1526 1526 1526 1526 1527 1527 1527 1527 1527 1527
1517 1525 1541 1547 1547 1540 1528 1531 1524 1513 1511 1511 1511 1511 1512 1513 1514 1515 1517 1517 1518 1520 1521 1521 1522 1523 1524 1524 1525 1525 1525 1525 1525 1524 1524 1524 1524 1524 1524 1525 1524 1524 1525 1525 1525 1526 1526 1526 1526
1517 1523 1522 1535 1536 1540 1535 1527 1520 1513 1513 1512 1512 1512 1513 1513 1514 1515 1516 1517 1517 1518 1519 1520 1521 1521 1522 1522 1523 1523 1523 1523 1523 1522 1522 1522 1522 1522 1523 1523 1523 1523 1523 1523 1523 1524 1524 1525 1525
1511 1516 1527 1533 1541 1545 1537 1532 1529 1520 1516 1514 1513 1513 1513 1514 1514 1514 1515 1516 1516 1517 1518 1518 1519 1520 1520 1520 1521 1520 1521 1521 1521 1521 1520 1520 1520 1520 1521 1521 1521 1521 1521 1522 1521 1522 1522 1523 1523
1515 1517 1523 1532 1534 1542 1543 1536 1517 1516 1515 1514 1513 1513 1513 1513 1513 1514 1515 1515 1515 1516 1516 1517 1517 1518 1518 1519 1519 1518 1518 1519 1518 1518 1518 1518 1518 1518 1518 1519 1519 1520 1520 1520 1520 1520 1520 1521 1521
1511 1514 1521 1533 1534 1535 1540 1535 1512 1512 1512 1513 1513 1513 1513 1513 1513 1513 1513 1514 1514 1515 1515 1515 1516 1516 1516 1516 1517 1517 1517 1517 1517 1516 1516 1516 1516 1517 1517 1517 1517 1518 1518 1518 1518 1518 1518 1518 1518